• In Österreich
  • Länderverzeichnis
  • Für 7 Tage
  • Wassertemperatur
  • Satellitenkarten
  • Wetterkarte
  • News
  • Widgets
  • user-avatar
    Anmelden

    Stündliche Wetter Nameskovo

    Heute, 18 September, Dienstag

    Zeit Temperatur Niederschläge Wind Luftdruck Luftfeuchtigkeit
    00:00 +10°C° 0.2 mm 5 m/S 743 mmHg 91%
    01:00 +12°C° 0.2 mm 5 m/S 743 mmHg 91%
    02:00 +12°C° 0 mm 4 m/S 742 mmHg 93%
    03:00 +12°C° 0.1 mm 4 m/S 742 mmHg 93%
    04:00 +12°C° 0.1 mm 4 m/S 742 mmHg 93%
    05:00 +11°C° 0.1 mm 4 m/S 742 mmHg 93%
    06:00 +12°C° 0 mm 4 m/S 742 mmHg 91%
    07:00 +12°C° 0 mm 5 m/S 742 mmHg 89%
    08:00 +12°C° 0 mm 5 m/S 742 mmHg 86%
    09:00 +11°C° 0.1 mm 6 m/S 743 mmHg 83%
    10:00 +13°C° 0.1 mm 6 m/S 743 mmHg 79%
    11:00 +13°C° 0.1 mm 6 m/S 743 mmHg 76%
    12:00 +13°C° 0 mm 6 m/S 744 mmHg 73%
    13:00 +13°C° 0 mm 6 m/S 744 mmHg 71%
    14:00 +13°C° 0 mm 4 m/S 744 mmHg 67%
    15:00 +13°C° 0 mm 4 m/S 745 mmHg 68%
    16:00 +13°C° 0 mm 3 m/S 745 mmHg 69%
    17:00 +12°C° 0 mm 3 m/S 745 mmHg 70%
    18:00 +11°C° 0 mm 3 m/S 745 mmHg 74%
    19:00 +10°C° 0 mm 3 m/S 746 mmHg 79%
    20:00 +9°C° 0 mm 2 m/S 746 mmHg 83%
    21:00 +9°C° 0 mm 2 m/S 746 mmHg 84%
    22:00 +8°C° 0 mm 2 m/S 746 mmHg 86%
    23:00 +8°C° 0 mm 2 m/S 746 mmHg 87%

    Morgen, 19 September, Mittwoch

    Zeit Temperatur Niederschläge Wind Luftdruck Luftfeuchtigkeit
    00:00 +9°C° 0 mm 2 m/S 746 mmHg 87%
    01:00 +9°C° 0 mm 2 m/S 746 mmHg 86%
    02:00 +9°C° 0 mm 2 m/S 746 mmHg 86%
    03:00 +9°C° 0.2 mm 2 m/S 746 mmHg 88%
    04:00 +10°C° 0.2 mm 2 m/S 746 mmHg 90%
    05:00 +10°C° 0.2 mm 2 m/S 745 mmHg 92%
    06:00 +10°C° 0.3 mm 3 m/S 745 mmHg 92%
    07:00 +11°C° 0.3 mm 3 m/S 745 mmHg 91%
    08:00 +12°C° 0.3 mm 3 m/S 745 mmHg 91%
    09:00 +14°C° 0 mm 3 m/S 745 mmHg 86%
    10:00 +15°C° 0 mm 4 m/S 745 mmHg 81%
    11:00 +18°C° 0 mm 4 m/S 745 mmHg 75%
    12:00 +19°C° 0 mm 4 m/S 745 mmHg 70%
    13:00 +20°C° 0 mm 4 m/S 745 mmHg 66%
    14:00 +21°C° 0 mm 4 m/S 745 mmHg 61%
    15:00 +20°C° 0 mm 3 m/S 744 mmHg 66%
    16:00 +19°C° 0 mm 2 m/S 744 mmHg 71%
    17:00 +19°C° 0 mm 1 m/S 744 mmHg 76%
    18:00 +17°C° 0 mm 2 m/S 744 mmHg 80%
    19:00 +16°C° 0 mm 2 m/S 744 mmHg 84%
    20:00 +15°C° 0 mm 2 m/S 744 mmHg 88%
    21:00 +15°C° 0 mm 2 m/S 744 mmHg 89%
    22:00 +14°C° 0 mm 2 m/S 744 mmHg 91%
    23:00 +14°C° 0 mm 2 m/S 744 mmHg 93%

    übermorgen, 20 September, Donnerstag

    Zeit Temperatur Niederschläge Wind Luftdruck Luftfeuchtigkeit
    00:00 +13°C° 0 mm 3 m/S 744 mmHg 94%
    01:00 +13°C° 0 mm 3 m/S 744 mmHg 95%
    02:00 +13°C° 0 mm 3 m/S 744 mmHg 95%
    03:00 +13°C° 0 mm 3 m/S 744 mmHg 96%
    04:00 +13°C° 0 mm 3 m/S 744 mmHg 96%
    05:00 +13°C° 0 mm 3 m/S 744 mmHg 97%
    06:00 +14°C° 0 mm 3 m/S 745 mmHg 94%
    07:00 +14°C° 0 mm 3 m/S 745 mmHg 91%
    08:00 +15°C° 0 mm 4 m/S 745 mmHg 88%
    09:00 +15°C° 0 mm 4 m/S 746 mmHg 84%
    10:00 +17°C° 0 mm 4 m/S 746 mmHg 80%
    11:00 +17°C° 0 mm 4 m/S 747 mmHg 76%
    12:00 +18°C° 0 mm 3 m/S 747 mmHg 73%
    13:00 +19°C° 0 mm 3 m/S 747 mmHg 70%
    14:00 +20°C° 0 mm 3 m/S 747 mmHg 67%
    15:00 +19°C° 0 mm 3 m/S 747 mmHg 71%
    16:00 +19°C° 0 mm 2 m/S 747 mmHg 76%
    17:00 +18°C° 0 mm 2 m/S 747 mmHg 81%
    18:00 +17°C° 0 mm 2 m/S 747 mmHg 85%
    19:00 +16°C° 0 mm 2 m/S 747 mmHg 89%
    20:00 +15°C° 0 mm 1 m/S 747 mmHg 93%
    21:00 +14°C° 0 mm 2 m/S 748 mmHg 93%
    22:00 +14°C° 0 mm 2 m/S 748 mmHg 94%
    23:00 +14°C° 0 mm 2 m/S 748 mmHg 94%

    21 September, Freitag

    Zeit Temperatur Niederschläge Wind Luftdruck Luftfeuchtigkeit
    00:00 +14°C° 0 mm 2 m/S 748 mmHg 95%
    01:00 +13°C° 0 mm 2 m/S 748 mmHg 95%
    02:00 +13°C° 0 mm 2 m/S 748 mmHg 95%
    03:00 +13°C° 0 mm 2 m/S 748 mmHg 95%
    04:00 +13°C° 0 mm 2 m/S 748 mmHg 96%
    05:00 +13°C° 0 mm 2 m/S 748 mmHg 96%
    06:00 +14°C° 0 mm 2 m/S 748 mmHg 91%
    07:00 +15°C° 0 mm 2 m/S 749 mmHg 87%
    08:00 +17°C° 0 mm 2 m/S 749 mmHg 83%
    09:00 +19°C° 0 mm 2 m/S 749 mmHg 77%
    10:00 +20°C° 0 mm 2 m/S 749 mmHg 72%
    11:00 +22°C° 0 mm 3 m/S 749 mmHg 67%
    12:00 +24°C° 0 mm 3 m/S 749 mmHg 65%
    13:00 +24°C° 0 mm 3 m/S 749 mmHg 64%
    14:00 +25°C° 0 mm 3 m/S 749 mmHg 63%
    15:00 +24°C° 0 mm 3 m/S 749 mmHg 69%
    16:00 +21°C° 0 mm 2 m/S 749 mmHg 74%
    17:00 +20°C° 0 mm 2 m/S 749 mmHg 80%
    18:00 +19°C° 0 mm 2 m/S 749 mmHg 84%
    19:00 +18°C° 0 mm 2 m/S 749 mmHg 87%
    20:00 +17°C° 0 mm 2 m/S 749 mmHg 91%
    21:00 +17°C° 0 mm 2 m/S 749 mmHg 92%
    22:00 +17°C° 0 mm 2 m/S 749 mmHg 93%
    23:00 +16°C° 0 mm 2 m/S 749 mmHg 94%

    22 September, Samstag

    Zeit Temperatur Niederschläge Wind Luftdruck Luftfeuchtigkeit
    00:00 +16°C° 0 mm 2 m/S 748 mmHg 94%
    01:00 +16°C° 0 mm 2 m/S 748 mmHg 94%
    02:00 +15°C° 0 mm 2 m/S 748 mmHg 95%
    03:00 +15°C° 0 mm 2 m/S 748 mmHg 95%
    04:00 +14°C° 0 mm 3 m/S 748 mmHg 95%
    05:00 +14°C° 0 mm 3 m/S 748 mmHg 95%
    06:00 +16°C° 0 mm 3 m/S 748 mmHg 90%
    07:00 +17°C° 0 mm 3 m/S 747 mmHg 85%
    08:00 +18°C° 0 mm 4 m/S 747 mmHg 81%
    09:00 +19°C° 0 mm 4 m/S 747 mmHg 75%
    10:00 +21°C° 0 mm 5 m/S 747 mmHg 69%
    11:00 +23°C° 0 mm 5 m/S 746 mmHg 64%
    12:00 +23°C° 0 mm 5 m/S 746 mmHg 61%
    13:00 +23°C° 0 mm 5 m/S 745 mmHg 58%
    14:00 +24°C° 0 mm 6 m/S 745 mmHg 56%
    15:00 +23°C° 0 mm 5 m/S 744 mmHg 60%
    16:00 +22°C° 0 mm 4 m/S 744 mmHg 65%
    17:00 +20°C° 0 mm 4 m/S 743 mmHg 70%
    18:00 +20°C° 0 mm 4 m/S 743 mmHg 72%
    19:00 +19°C° 0 mm 4 m/S 743 mmHg 74%
    20:00 +19°C° 0 mm 4 m/S 743 mmHg 76%
    21:00 +18°C° 0 mm 4 m/S 743 mmHg 78%
    22:00 +18°C° 0 mm 4 m/S 742 mmHg 79%
    23:00 +18°C° 0 mm 4 m/S 742 mmHg 80%

    23 September, Sonntag

    Zeit Temperatur Niederschläge Wind Luftdruck Luftfeuchtigkeit
    00:00 +17°C° 0.1 mm 4 m/S 742 mmHg 82%
    01:00 +17°C° 0.1 mm 4 m/S 742 mmHg 84%
    02:00 +16°C° 0.1 mm 3 m/S 742 mmHg 86%
    03:00 +16°C° 0.1 mm 3 m/S 742 mmHg 87%
    04:00 +14°C° 0.1 mm 3 m/S 742 mmHg 89%
    05:00 +14°C° 0.1 mm 3 m/S 741 mmHg 90%
    06:00 +14°C° 0.2 mm 3 m/S 741 mmHg 89%
    07:00 +16°C° 0.2 mm 3 m/S 741 mmHg 87%
    08:00 +16°C° 0.2 mm 3 m/S 741 mmHg 86%
    09:00 +17°C° 0.1 mm 3 m/S 741 mmHg 84%
    10:00 +17°C° 0.1 mm 3 m/S 741 mmHg 82%
    11:00 +17°C° 0.1 mm 3 m/S 741 mmHg 80%
    12:00 +16°C° 0.7 mm 3 m/S 741 mmHg 82%
    13:00 +14°C° 0.7 mm 3 m/S 741 mmHg 85%
    14:00 +13°C° 0.7 mm 4 m/S 741 mmHg 87%
    15:00 +12°C° 0.8 mm 4 m/S 741 mmHg 88%
    16:00 +11°C° 0.8 mm 3 m/S 742 mmHg 89%
    17:00 +10°C° 0.8 mm 3 m/S 742 mmHg 90%
    18:00 +9°C° 0.1 mm 3 m/S 742 mmHg 91%
    19:00 +9°C° 0.1 mm 3 m/S 743 mmHg 91%
    20:00 +9°C° 0.1 mm 3 m/S 743 mmHg 91%
    21:00 +9°C° 0 mm 2 m/S 743 mmHg 92%
    22:00 +8°C° 0 mm 2 m/S 744 mmHg 94%
    23:00 +9°C° 0 mm 1 m/S 744 mmHg 95%
    Mehr zeigen